Orbital Elements at Epoch 2459200.5 (2020-Dec-17.0) TDB
Reference: JPL 12 (heliocentric ecliptic J2000)
Element | Value | Uncertainty (1-sigma) | Units |
e | .2308869852633146 | 4.0057e-08 | |
a | 2.191473775681664 | 7.3226e-09 | au |
q | 1.685491002330911 | 8.9519e-08 | au |
i | 5.233248128797329 | 3.6878e-06 | deg |
node | 189.9994026447188 | 4.8853e-05 | deg |
peri | 130.1514711512139 | 5.068e-05 | deg |
M | 124.183204887932 | 9.4911e-06 | deg |
tp | 2458791.744878727163 (2019-Nov-04.24487873) | 3.0909e-05 | TDB |
period | 1184.957690462389 3.24 | 5.9391e-06 1.626e-08 | d yr |
n | .3038083156028318 | 1.5227e-09 | deg/d |
Q | 2.697456549032416 | 9.0132e-09 | au |
|
| | Orbit Determination Parameters
Additional Information
|